DELTA 1 DEB, 1313

Orbit data source: Space-Track

DELTA 1 DEB, 1313 is space debris in SSO originally from a launch on Fri, 22 Jan 1965 UTC launched from the Air Force Eastern Test Range (AFETR). Debris objects in space refer to the collection of defunct objects orbiting the Earth. Examples of debris include non-operational satellites, rocket bodies, and fragments generated from explosions, collisions, or faulty payload assembly.

Loading next visibility...
Identifier
1313, 1965-004D
Orbit
SSO
Country
Flag of USUS
Related business
Manufacturer
Unknown
Mission
Spacecraft
Bus & Motor
Unknown
Mass
~1 kg wet, ~1 kg dry
Launch date (UTC)
1965-01-22 (61 years ago)
Launch vehicle
Unknown
Launch site
Air Force Eastern Test Range (AFETR)
Object type
Payload
Rocket body
Debris
Shape & HBR
Unknown
Radar Cross Section
Small (<0.1 m²)

Expand to show TLE details & history
Last TLE update: 1 day ago

TLE from 1 day ago
0 DELTA 1 DEB
1 01313U 65004D   26144.84916164  .00000299  00000-0  46437-3 0  9996
2 01313  96.4209  99.1492 1174809  15.6240 347.8050 12.00824141683649
Epoch: 2026-05-24T20:22Z
TLE epoch observation values (Epoch: 2026-05-24T20:22:47.565Z)
Latitude
-0.00005°
Longitude
-88.99439°
Altitude
760.679 km
Speed
7.889 km/s
True Right ascension
06h 36m 35s
True Declination
0° 00' 00"
Sunlit
Object was in daylight at epoch
Visualization orbit readout
Latitude
Unknown
Longitude
Unknown
Altitude
Unknown
Speed
Unknown
Apparent Right ascension
Unknown
Apparent Declination
Unknown
Sunlit
N/A
Visualization observer readout
Local Sidereal Time
07:16:04
Azimuth
Unknown
Elevation
Unknown
Doppler factor
Unknown
Orbital elements
Apogee altitude
2,620.522 km
Perigee altitude
728.462 km
Semi-major axis
8,052.629 km
Eccentricity
0.11748
Inclination
96.4209°
RAAN
99.1492°
Arg. of periapsis
15.624°
True anomaly
344.49034°
Mean anomaly
347.805°
Eccentric anomaly
346.19932°
Mean motion
3.00356 °/min
Orbital period
119.86 mins
BSTAR
0.00046437
Loading maneuver chart data...
Computing Atmospheric mass density...
Loading historical data...
Loading historical data...
Loading historical data...
Loading historical data...
Loading historical data...
Loading historical data...
Loading historical data...
Other satellites on launch #4 in the year 1965 (1965-01-22 UTC)

Documentation

Showing up to 5 results
|